Regional Weather Roundup
Issued by NWS

Home | Current Version | Previous Version | Graphics & Text | Print | Product List | Glossary On
Versions: 1 2 3 4 5 6 7 8 9 10 11 12 13 14 15 16 17 18 19 20 21 22 23 24 25 26 27 28 29 30 31 32 33 34 35 36 37 38 39 40 41 42 43 44 45 46 47 48 49 50
000
ASUS44 KMEG 120600
RWRTN
TENNESSEE HOURLY STATE WEATHER ROUNDUP
NATIONAL WEATHER SERVICE MEMPHIS TN
100 AM CDT SAT JUL 12 2014

TNZ002-004-019-021-049-052-054-088>092-120700-
WEST TENNESSEE

CITY           SKY/WX    TMP DP  RH WIND       PRES   REMARKS
MEMPHIS INTL   CLEAR     77  72  84 CALM      30.15S
NWS MEMPHIS      N/A     73 N/A N/A MISG        N/A
JACKSON        CLEAR     70  68  93 CALM      30.15F FOG
DYERSBURG      CLEAR     72  63  73 CALM      30.15F
UNION CITY     CLEAR     72  70  94 CALM      30.14S
LEXINGTON      CLEAR     70  68  94 CALM      30.15F
$$

TNZ008-025-027-028-033-062-065-066-120700-
NORTH MIDDLE TENNESSEE

CITY           SKY/WX    TMP DP  RH WIND       PRES   REMARKS
NASHVILLE      CLEAR     74  65  73 CALM      30.17S
CLARKSVILLE    CLEAR     70  65  84 CALM      30.16F
COOKEVILLE     CLEAR     64  63  94 CALM      30.19F
CROSSVILLE     CLEAR     66  62  87 CALM      30.25F
$$

TNZ061-075-076-078-094-096-097-120700-
SOUTH MIDDLE TENNESSEE

CITY           SKY/WX    TMP DP  RH WIND       PRES   REMARKS
TULLAHOMA      CLEAR     66  63  88 CALM      30.20F
WINCHESTER     CLEAR     66  64  94 CALM      30.19F
MCMINNVILLE    CLEAR     66  66 100 CALM      30.19F
COLUMBIA       CLEAR     72  68  88 CALM      30.16F
$$

TNZ017-018-042-046-047-120700-
NORTHEAST TENNESSEE

CITY           SKY/WX    TMP DP  RH WIND       PRES   REMARKS
TRI CITIES     CLEAR     67  60  78 CALM      30.23F
ELIZABETHTON   CLEAR     66  63  88 E6        30.24F
$$

TNZ012-013-036-069-073-074-120700-
CENTRAL EAST TENNESSEE

CITY           SKY/WX    TMP DP  RH WIND       PRES   REMARKS
KNOXVILLE      PTCLDY    72  65  78 CALM      30.19S
OAK RIDGE      CLEAR     69  65  86 CALM      30.21S
$$

TNZ083-085-099-120700-
SOUTHEAST TENNESSEE

CITY           SKY/WX    TMP DP  RH WIND       PRES   REMARKS
CHATTANOOGA    CLEAR     75  67  76 E3        30.18F
$$

SKY/WX REPORTED AS FAIR MEANS FEW OR NO CLOUDS BELOW
12 THOUSAND FEET.




USA.gov is the U.S. government's official web portal to all federal, state and local government web resources and services.